Time,TemperatureF,DewpointF,PressureIn,WindDirection,WindDirectionDegrees,WindSpeedMPH,WindSpeedGustMPH,Humidity,HourlyPrecipIn,Conditions,Clouds,dailyrainin,SolarRadiationWatts/m^2,SoftwareType,DateUTC
2013-06-29 00:02:00,62.3,60.8,30.09,SW,226,0.0,0.0,95,0.00,BKN,,0.00,0.0,WeatherDisplay:10.37,2013-06-29 07:02:00,
2013-06-29 00:07:00,62.2,61.0,30.09,SW,227,0.0,0.0,96,0.00,BKN,,0.00,0.0,WeatherDisplay:10.37,2013-06-29 07:07:00,
2013-06-29 00:12:00,62.2,61.0,30.09,SW,224,0.0,0.0,96,0.00,BKN,,0.00,0.0,WeatherDisplay:10.37,2013-06-29 07:12:00,
2013-06-29 00:17:00,62.2,61.0,30.09,SW,224,0.0,0.0,96,0.00,BKN,,0.00,0.0,WeatherDisplay:10.37,2013-06-29 07:17:00,
2013-06-29 00:22:00,62.0,60.8,30.09,SW,224,0.0,0.0,96,0.00,BKN,,0.00,0.0,WeatherDisplay:10.37,2013-06-29 07:22:00,
2013-06-29 00:27:00,62.1,60.9,30.09,SW,225,0.0,0.0,96,0.00,BKN,,0.00,0.0,WeatherDisplay:10.37,2013-06-29 07:27:00,
2013-06-29 00:32:00,62.0,60.8,30.09,SW,227,0.0,0.0,96,0.00,SCT,,0.00,0.0,WeatherDisplay:10.37,2013-06-29 07:32:00,
2013-06-29 00:37:00,62.0,60.8,30.09,SW,226,0.0,0.0,96,0.00,SCT,,0.00,0.0,WeatherDisplay:10.37,2013-06-29 07:37:00,
2013-06-29 00:42:00,62.0,60.8,30.09,SW,227,0.0,0.0,96,0.00,SCT,,0.00,0.0,WeatherDisplay:10.37,2013-06-29 07:42:00,
2013-06-29 00:47:00,61.9,60.7,30.09,SW,224,0.0,0.0,96,0.00,SCT,,0.00,0.0,WeatherDisplay:10.37,2013-06-29 07:47:00,
2013-06-29 00:52:00,61.9,60.7,30.09,SW,226,0.0,0.0,96,0.00,SCT,,0.00,0.0,WeatherDisplay:10.37,2013-06-29 07:52:00,
2013-06-29 00:57:00,61.8,60.6,30.09,SW,225,0.0,0.0,96,0.00,SCT,,0.00,0.0,WeatherDisplay:10.37,2013-06-29 07:57:00,
2013-06-29 01:02:00,61.8,60.6,30.09,SW,224,0.0,0.0,96,0.00,SCT,,0.00,0.0,WeatherDisplay:10.37,2013-06-29 08:02:00,
2013-06-29 01:07:00,61.8,60.6,30.09,SW,226,0.0,0.0,96,0.00,SCT,,0.00,0.0,WeatherDisplay:10.37,2013-06-29 08:07:00,
2013-06-29 01:12:00,61.7,60.5,30.09,SW,226,0.0,0.0,96,0.00,SCT,,0.00,0.0,WeatherDisplay:10.37,2013-06-29 08:12:00,
2013-06-29 01:17:00,61.7,60.5,30.09,SW,227,0.0,0.0,96,0.00,SCT,,0.00,0.0,WeatherDisplay:10.37,2013-06-29 08:17:00,
2013-06-29 01:22:00,61.7,60.5,30.09,SW,225,0.0,0.0,96,0.00,SCT,,0.00,0.0,WeatherDisplay:10.37,2013-06-29 08:22:00,
2013-06-29 01:27:00,61.7,60.5,30.09,SW,224,0.0,0.0,96,0.00,SCT,,0.00,0.0,WeatherDisplay:10.37,2013-06-29 08:27:00,
2013-06-29 01:32:00,61.7,60.5,30.09,SW,224,0.0,0.0,96,0.00,SCT,,0.00,0.0,WeatherDisplay:10.37,2013-06-29 08:32:00,
2013-06-29 01:37:00,61.6,60.4,30.09,SW,228,0.0,0.0,96,0.00,SCT,,0.00,0.0,WeatherDisplay:10.37,2013-06-29 08:37:00,
2013-06-29 01:42:00,61.7,60.5,30.09,SW,225,0.0,0.0,96,0.00,SCT,,0.00,0.0,WeatherDisplay:10.37,2013-06-29 08:42:00,
2013-06-29 01:47:00,61.7,60.5,30.09,SW,224,0.0,0.0,96,0.00,SCT,,0.00,0.0,WeatherDisplay:10.37,2013-06-29 08:47:00,
2013-06-29 01:52:00,61.7,60.5,30.09,SW,226,0.0,0.0,96,0.00,SCT,,0.00,0.0,WeatherDisplay:10.37,2013-06-29 08:52:00,
2013-06-29 01:57:00,61.8,60.6,30.09,SW,226,0.0,0.0,96,0.00,SCT,,0.00,0.0,WeatherDisplay:10.37,2013-06-29 08:57:00,
2013-06-29 02:02:00,61.9,60.7,30.09,SW,228,0.0,0.0,96,0.00,SCT,,0.00,0.0,WeatherDisplay:10.37,2013-06-29 09:02:00,
2013-06-29 02:07:00,61.9,60.7,30.09,SW,224,0.0,0.0,96,0.00,SCT,,0.00,0.0,WeatherDisplay:10.37,2013-06-29 09:07:00,
2013-06-29 02:12:00,61.9,60.7,30.09,SW,224,0.0,0.0,96,0.00,SCT,,0.00,0.0,WeatherDisplay:10.37,2013-06-29 09:12:00,
2013-06-29 02:17:00,62.0,61.1,30.09,SW,227,0.0,0.0,97,0.00,SCT,,0.00,0.0,WeatherDisplay:10.37,2013-06-29 09:17:00,
2013-06-29 02:22:00,62.1,61.2,30.09,SW,225,0.0,0.0,97,0.00,SCT,,0.00,0.0,WeatherDisplay:10.37,2013-06-29 09:22:00,
2013-06-29 02:27:00,62.0,60.8,30.09,SW,227,0.0,0.0,96,0.00,SCT,,0.00,0.0,WeatherDisplay:10.37,2013-06-29 09:27:00,
2013-06-29 02:32:00,62.2,61.3,30.09,SW,226,0.0,0.0,97,0.00,BKN,,0.00,0.0,WeatherDisplay:10.37,2013-06-29 09:32:00,
2013-06-29 02:37:00,62.4,61.2,30.09,SW,227,0.0,0.0,96,0.00,BKN,,0.00,0.0,WeatherDisplay:10.37,2013-06-29 09:37:00,
2013-06-29 02:42:00,62.4,61.2,30.09,SW,226,0.0,0.0,96,0.00,BKN,,0.00,0.0,WeatherDisplay:10.37,2013-06-29 09:42:00,
2013-06-29 02:47:00,62.3,61.1,30.09,SW,224,0.0,0.0,96,0.00,BKN,,0.00,0.0,WeatherDisplay:10.37,2013-06-29 09:47:00,
2013-06-29 02:52:00,62.2,61.0,30.09,SW,226,0.0,0.0,96,0.00,BKN,,0.00,0.0,WeatherDisplay:10.37,2013-06-29 09:52:00,
2013-06-29 02:57:00,62.2,61.0,30.09,SW,224,0.0,0.0,96,0.00,BKN,,0.00,0.0,WeatherDisplay:10.37,2013-06-29 09:57:00,
2013-06-29 03:02:00,62.2,61.0,30.09,SW,225,0.0,0.0,96,0.00,BKN,,0.00,0.0,WeatherDisplay:10.37,2013-06-29 10:02:00,
2013-06-29 03:07:00,62.1,61.2,30.09,SW,224,0.0,0.0,97,0.00,BKN,,0.00,0.0,WeatherDisplay:10.37,2013-06-29 10:07:00,
2013-06-29 03:12:00,62.2,61.3,30.09,SW,228,0.0,0.0,97,0.00,BKN,,0.00,0.0,WeatherDisplay:10.37,2013-06-29 10:12:00,
2013-06-29 03:17:00,62.1,61.2,30.09,SW,227,0.0,0.0,97,0.00,BKN,,0.00,0.0,WeatherDisplay:10.37,2013-06-29 10:17:00,
2013-06-29 03:22:00,62.1,61.2,30.09,SW,224,0.0,0.0,97,0.00,BKN,,0.00,0.0,WeatherDisplay:10.37,2013-06-29 10:22:00,
2013-06-29 03:27:00,62.1,61.2,30.09,SW,226,0.0,0.0,97,0.00,BKN,,0.00,0.0,WeatherDisplay:10.37,2013-06-29 10:27:00,
2013-06-29 03:32:00,61.9,61.0,30.09,SW,226,0.0,0.0,97,0.00,BKN,,0.00,0.0,WeatherDisplay:10.37,2013-06-29 10:32:00,
2013-06-29 03:37:00,61.8,60.9,30.09,SW,228,0.0,0.0,97,0.00,BKN,,0.00,0.0,WeatherDisplay:10.37,2013-06-29 10:37:00,
2013-06-29 03:42:00,61.7,60.8,30.10,SW,226,0.0,0.0,97,0.00,BKN,,0.00,0.0,WeatherDisplay:10.37,2013-06-29 10:42:00,
2013-06-29 03:47:00,61.6,60.7,30.10,SW,224,0.0,0.0,97,0.00,BKN,,0.00,0.0,WeatherDisplay:10.37,2013-06-29 10:47:00,
2013-06-29 03:52:00,61.8,60.9,30.10,SW,226,0.0,1.1,97,0.00,BKN,,0.00,0.0,WeatherDisplay:10.37,2013-06-29 10:52:00,
2013-06-29 03:57:00,61.9,61.0,30.10,SW,227,0.0,0.0,97,0.00,BKN,,0.00,0.0,WeatherDisplay:10.37,2013-06-29 10:57:00,
2013-06-29 04:02:00,61.8,60.9,30.10,SW,226,0.0,1.1,97,0.00,BKN,,0.00,0.0,WeatherDisplay:10.37,2013-06-29 11:02:00,
2013-06-29 04:07:00,61.7,60.8,30.11,SW,226,0.0,1.1,97,0.00,BKN,,0.00,0.0,WeatherDisplay:10.37,2013-06-29 11:07:00,
2013-06-29 04:12:00,61.7,60.8,30.11,SW,227,0.0,0.0,97,0.00,BKN,,0.00,0.0,WeatherDisplay:10.37,2013-06-29 11:12:00,
2013-06-29 04:17:00,61.7,60.8,30.10,SW,224,0.0,0.0,97,0.00,BKN,,0.00,0.0,WeatherDisplay:10.37,2013-06-29 11:17:00,
2013-06-29 04:22:00,61.7,60.8,30.10,SW,226,0.0,0.0,97,0.00,BKN,,0.00,0.0,WeatherDisplay:10.37,2013-06-29 11:22:00,
2013-06-29 04:27:00,61.5,60.6,30.10,SW,225,0.0,0.0,97,0.00,BKN,,0.00,0.0,WeatherDisplay:10.37,2013-06-29 11:27:00,
2013-06-29 04:32:00,61.5,60.6,30.09,SW,224,0.0,0.0,97,0.00,BKN,,0.00,0.0,WeatherDisplay:10.37,2013-06-29 11:32:00,
2013-06-29 04:37:00,61.4,60.5,30.09,SW,224,0.0,0.0,97,0.00,BKN,,0.00,0.0,WeatherDisplay:10.37,2013-06-29 11:37:00,
2013-06-29 04:42:00,61.3,60.4,30.10,SW,226,0.1,1.1,97,0.00,BKN,,0.00,0.0,WeatherDisplay:10.37,2013-06-29 11:42:00,
2013-06-29 04:47:00,61.2,60.3,30.11,SW,227,0.1,0.0,97,0.00,BKN,,0.00,0.0,WeatherDisplay:10.37,2013-06-29 11:47:00,
2013-06-29 04:52:00,61.2,60.3,30.11,SW,224,0.0,1.1,97,0.00,BKN,,0.00,0.0,WeatherDisplay:10.37,2013-06-29 11:52:00,
2013-06-29 04:57:00,61.3,60.4,30.11,SW,226,0.0,0.0,97,0.00,BKN,,0.00,0.0,WeatherDisplay:10.37,2013-06-29 11:57:00,
2013-06-29 05:02:00,61.2,60.3,30.10,SW,227,0.0,0.0,97,0.00,BKN,,0.00,0.0,WeatherDisplay:10.37,2013-06-29 12:02:00,
2013-06-29 05:07:00,61.3,60.4,30.10,SW,226,0.0,0.0,97,0.00,BKN,,0.00,0.0,WeatherDisplay:10.37,2013-06-29 12:07:00,
2013-06-29 05:12:00,61.3,60.4,30.10,SW,226,0.0,0.0,97,0.00,BKN,,0.00,0.0,WeatherDisplay:10.37,2013-06-29 12:12:00,
2013-06-29 05:18:00,61.2,60.3,30.10,SW,224,0.0,0.0,97,0.00,BKN,,0.00,0.0,WeatherDisplay:10.37,2013-06-29 12:18:00,
2013-06-29 05:23:00,61.3,60.4,30.10,SW,226,0.0,0.0,97,0.00,BKN,,0.00,0.0,WeatherDisplay:10.37,2013-06-29 12:23:00,
2013-06-29 05:28:00,61.3,60.4,30.09,SW,227,0.0,0.0,97,0.00,BKN,,0.00,0.0,WeatherDisplay:10.37,2013-06-29 12:28:00,
2013-06-29 05:33:00,61.2,60.1,30.09,SW,224,0.0,0.0,96,0.00,BKN,,0.00,5.0,WeatherDisplay:10.37,2013-06-29 12:33:00,
2013-06-29 05:38:00,61.2,60.1,30.09,SW,224,0.0,3.5,96,0.00,BKN,,0.00,7.0,WeatherDisplay:10.37,2013-06-29 12:38:00,
2013-06-29 05:43:00,61.3,60.4,30.09,SW,225,0.0,1.1,97,0.00,BKN,,0.00,11.0,WeatherDisplay:10.37,2013-06-29 12:43:00,
2013-06-29 05:48:00,61.5,60.6,30.08,SW,226,0.0,0.0,97,0.00,BKN,,0.00,11.0,WeatherDisplay:10.37,2013-06-29 12:48:00,
2013-06-29 05:53:00,61.5,60.6,30.08,SW,226,0.0,0.0,97,0.00,BKN,,0.00,18.0,WeatherDisplay:10.37,2013-06-29 12:53:00,
2013-06-29 05:58:00,61.6,60.7,30.09,SW,224,0.0,0.0,97,0.00,BKN,,0.00,21.0,WeatherDisplay:10.37,2013-06-29 12:58:00,
2013-06-29 06:03:00,61.8,60.9,30.08,NE,47,0.4,0.0,97,0.00,BKN,,0.00,16.0,WeatherDisplay:10.37,2013-06-29 13:03:00,
2013-06-29 06:08:00,62.1,60.9,30.08,NE,36,0.0,1.1,96,0.00,BKN,,0.00,12.0,WeatherDisplay:10.37,2013-06-29 13:08:00,
2013-06-29 06:13:00,62.3,60.8,30.09,SE,133,0.0,3.5,95,0.00,BKN,,0.00,12.0,WeatherDisplay:10.37,2013-06-29 13:13:00,
2013-06-29 06:18:00,62.4,60.9,30.09,SE,128,0.6,2.3,95,0.00,BKN,,0.00,16.0,WeatherDisplay:10.37,2013-06-29 13:18:00,
2013-06-29 06:23:00,62.4,60.9,30.09,East,82,0.0,0.0,95,0.00,BKN,,0.00,33.0,WeatherDisplay:10.37,2013-06-29 13:23:00,
2013-06-29 06:28:00,62.4,60.9,30.09,NE,53,0.1,1.1,95,0.00,BKN,,0.00,44.0,WeatherDisplay:10.37,2013-06-29 13:28:00,
2013-06-29 06:33:00,62.5,61.0,30.08,NE,53,0.1,1.1,95,0.00,SCT,,0.00,51.0,WeatherDisplay:10.37,2013-06-29 13:33:00,
2013-06-29 06:38:00,62.6,60.8,30.09,ENE,58,0.0,0.0,94,0.00,SCT,,0.00,51.0,WeatherDisplay:10.37,2013-06-29 13:38:00,
2013-06-29 06:43:00,62.6,60.8,30.09,ENE,58,0.0,0.0,94,0.00,SCT,,0.00,44.0,WeatherDisplay:10.37,2013-06-29 13:43:00,
2013-06-29 06:48:00,62.7,60.9,30.09,ENE,73,0.0,1.1,94,0.00,SCT,,0.00,40.0,WeatherDisplay:10.37,2013-06-29 13:48:00,
2013-06-29 06:53:00,62.7,60.9,30.09,ENE,75,0.0,0.0,94,0.00,SCT,,0.00,33.0,WeatherDisplay:10.37,2013-06-29 13:53:00,
2013-06-29 06:58:00,62.7,60.9,30.09,East,89,0.0,0.0,94,0.00,SCT,,0.00,39.0,WeatherDisplay:10.37,2013-06-29 13:58:00,
2013-06-29 07:03:00,63.0,60.9,30.09,East,93,0.0,0.0,93,0.00,SCT,,0.00,42.0,WeatherDisplay:10.37,2013-06-29 14:03:00,
2013-06-29 07:08:00,63.3,61.2,30.09,SSE,152,1.0,3.5,93,0.00,SCT,,0.00,47.0,WeatherDisplay:10.37,2013-06-29 14:08:00,
2013-06-29 07:13:00,63.7,61.3,30.10,SSE,160,0.2,2.3,92,0.00,SCT,,0.00,51.0,WeatherDisplay:10.37,2013-06-29 14:13:00,
2013-06-29 07:14:00,63.8,61.4,30.09,SSE,156,0.1,1.1,92,0.00,SCT,,0.00,53.0,WeatherDisplay:10.37,2013-06-29 14:14:00,
2013-06-29 07:19:00,64.1,61.7,30.09,SSE,160,0.0,0.0,92,0.00,SCT,,0.00,35.0,WeatherDisplay:10.37,2013-06-29 14:19:00,
2013-06-29 07:24:00,64.1,61.7,30.09,SSE,159,0.1,1.1,92,0.00,SCT,,0.00,56.0,WeatherDisplay:10.37,2013-06-29 14:24:00,
2013-06-29 07:29:00,64.4,62.0,30.10,South,183,0.5,5.0,92,0.00,SCT,,0.00,276.0,WeatherDisplay:10.37,2013-06-29 14:29:00,
2013-06-29 07:34:00,64.8,62.1,30.09,SSE,164,1.7,4.6,91,0.00,SCT,,0.00,197.0,WeatherDisplay:10.37,2013-06-29 14:34:00,
2013-06-29 07:39:00,65.2,62.2,30.09,SSE,167,0.5,3.5,90,0.00,SCT,,0.00,251.0,WeatherDisplay:10.37,2013-06-29 14:39:00,
2013-06-29 07:44:00,65.7,62.4,30.09,SSE,160,0.7,3.5,89,0.00,SCT,,0.00,322.0,WeatherDisplay:10.37,2013-06-29 14:44:00,
2013-06-29 07:49:00,65.8,62.1,30.09,South,187,1.7,3.5,88,0.00,SCT,,0.00,301.0,WeatherDisplay:10.37,2013-06-29 14:49:00,
2013-06-29 07:54:00,65.7,62.4,30.09,SSE,160,0.6,2.3,89,0.00,SCT,,0.00,299.0,WeatherDisplay:10.37,2013-06-29 14:54:00,
2013-06-29 07:59:00,65.5,62.2,30.09,SSE,162,0.0,1.1,89,0.00,SCT,,0.00,130.0,WeatherDisplay:10.37,2013-06-29 14:59:00,
2013-06-29 08:04:00,65.9,62.6,30.09,SSE,156,2.3,4.6,89,0.00,SCT,,0.00,348.0,WeatherDisplay:10.37,2013-06-29 15:04:00,
2013-06-29 08:09:00,66.0,62.7,30.09,South,178,3.0,4.6,89,0.00,SCT,,0.00,111.0,WeatherDisplay:10.37,2013-06-29 15:09:00,
2013-06-29 08:14:00,66.3,62.6,30.09,SE,139,0.0,1.1,88,0.00,SCT,,0.00,60.0,WeatherDisplay:10.37,2013-06-29 15:14:00,
2013-06-29 08:19:00,66.5,62.8,30.09,SSW,206,0.5,1.1,88,0.00,SCT,,0.00,56.0,WeatherDisplay:10.37,2013-06-29 15:19:00,
2013-06-29 08:24:00,66.6,62.6,30.09,SW,225,0.0,1.0,87,0.00,SCT,,0.00,56.0,WeatherDisplay:10.37,2013-06-29 15:24:00,
2013-06-29 08:29:00,66.6,62.6,30.09,SW,224,0.0,1.1,87,0.00,SCT,,0.00,56.0,WeatherDisplay:10.37,2013-06-29 15:29:00,
2013-06-29 08:34:00,66.8,62.8,30.09,South,181,0.0,0.0,87,0.00,SCT,,0.00,56.0,WeatherDisplay:10.37,2013-06-29 15:34:00,
2013-06-29 08:39:00,66.9,62.2,30.09,South,178,0.1,1.1,85,0.00,SCT,,0.00,56.0,WeatherDisplay:10.37,2013-06-29 15:39:00,
2013-06-29 08:44:00,67.3,63.0,30.09,South,172,0.0,0.0,86,0.00,SCT,,0.00,56.0,WeatherDisplay:10.37,2013-06-29 15:44:00,
2013-06-29 08:49:00,67.7,62.7,30.09,South,171,0.0,0.0,84,0.00,SCT,,0.00,58.0,WeatherDisplay:10.37,2013-06-29 15:49:00,
2013-06-29 08:54:00,68.4,63.4,30.08,SE,130,0.1,1.1,84,0.00,SCT,,0.00,58.0,WeatherDisplay:10.37,2013-06-29 15:54:00,
2013-06-29 08:59:00,68.7,63.7,30.09,SE,129,0.0,1.1,84,0.00,SCT,,0.00,60.0,WeatherDisplay:10.37,2013-06-29 15:59:00,
2013-06-29 09:04:00,68.9,63.2,30.08,SE,130,0.0,0.0,82,0.00,SCT,,0.00,60.0,WeatherDisplay:10.37,2013-06-29 16:04:00,
2013-06-29 09:09:00,69.2,64.2,30.09,North,11,0.0,1.1,84,0.00,SCT,,0.00,62.0,WeatherDisplay:10.37,2013-06-29 16:09:00,
2013-06-29 09:14:00,69.9,63.4,30.08,NE,54,0.0,0.0,80,0.00,SCT,,0.00,63.0,WeatherDisplay:10.37,2013-06-29 16:14:00,
2013-06-29 09:19:00,70.3,64.9,30.09,South,178,0.0,1.1,83,0.00,SCT,,0.00,65.0,WeatherDisplay:10.37,2013-06-29 16:19:00,
2013-06-29 09:24:00,70.5,64.0,30.09,South,170,1.7,3.5,80,0.00,SCT,,0.00,65.0,WeatherDisplay:10.37,2013-06-29 16:24:00,
2013-06-29 09:29:00,70.5,64.0,30.09,South,189,0.1,2.3,80,0.00,SCT,,0.00,67.0,WeatherDisplay:10.37,2013-06-29 16:29:00,
2013-06-29 09:34:00,70.9,64.8,30.09,South,179,1.3,3.5,81,0.00,SCT,,0.00,69.0,WeatherDisplay:10.37,2013-06-29 16:34:00,
2013-06-29 09:39:00,71.2,63.6,30.08,SSE,156,0.6,4.0,77,0.00,SCT,,0.00,74.0,WeatherDisplay:10.37,2013-06-29 16:39:00,
2013-06-29 09:44:00,71.4,64.9,30.08,SSE,158,0.0,1.0,80,0.00,SCT,,0.00,155.0,WeatherDisplay:10.37,2013-06-29 16:44:00,
2013-06-29 09:49:00,71.4,64.9,30.08,South,174,0.0,1.1,80,0.00,SCT,,0.00,652.0,WeatherDisplay:10.37,2013-06-29 16:49:00,
2013-06-29 09:54:00,72.3,64.3,30.08,South,174,0.0,0.0,76,0.00,SCT,,0.00,664.0,WeatherDisplay:10.37,2013-06-29 16:54:00,
2013-06-29 09:59:00,73.5,65.1,30.08,South,174,0.2,1.1,75,0.00,SCT,,0.00,679.0,WeatherDisplay:10.37,2013-06-29 16:59:00,
2013-06-29 10:04:00,74.1,66.0,30.08,SSW,211,0.5,2.0,76,0.00,SCT,,0.00,696.0,WeatherDisplay:10.37,2013-06-29 17:04:00,
2013-06-29 10:10:00,74.8,66.3,30.08,SW,223,0.0,1.1,75,0.00,SCT,,0.00,696.0,WeatherDisplay:10.37,2013-06-29 17:10:00,
2013-06-29 10:15:00,75.0,65.0,30.08,SSE,164,1.1,3.5,71,0.00,SCT,,0.00,680.0,WeatherDisplay:10.37,2013-06-29 17:15:00,
2013-06-29 10:20:00,75.2,65.1,30.08,South,169,0.5,0.0,71,0.00,SCT,,0.00,722.0,WeatherDisplay:10.37,2013-06-29 17:20:00,
2013-06-29 10:25:00,76.0,65.9,30.08,ESE,120,2.3,3.5,71,0.00,SCT,,0.00,737.0,WeatherDisplay:10.37,2013-06-29 17:25:00,
2013-06-29 10:30:00,76.3,65.4,30.08,SSE,148,0.1,1.0,69,0.00,SCT,,0.00,751.0,WeatherDisplay:10.37,2013-06-29 17:30:00,
2013-06-29 10:35:00,76.0,65.1,30.08,South,172,1.4,3.5,69,0.00,SCT,,0.00,700.0,WeatherDisplay:10.37,2013-06-29 17:35:00,
2013-06-29 10:40:00,76.1,65.2,30.08,South,179,5.3,6.9,69,0.00,SCT,,0.00,765.0,WeatherDisplay:10.37,2013-06-29 17:40:00,
2013-06-29 10:45:00,76.7,64.9,30.08,South,185,0.7,3.5,67,0.00,SCT,,0.00,782.0,WeatherDisplay:10.37,2013-06-29 17:45:00,
2013-06-29 10:50:00,77.0,66.5,30.08,West,274,0.4,1.1,70,0.00,SCT,,0.00,471.0,WeatherDisplay:10.37,2013-06-29 17:50:00,
2013-06-29 10:55:00,76.6,64.8,30.08,West,280,0.1,0.0,67,0.00,SCT,,0.00,383.0,WeatherDisplay:10.37,2013-06-29 17:55:00,
2013-06-29 11:00:00,77.0,67.3,30.08,NE,48,0.0,2.3,72,0.00,SCT,,0.00,613.0,WeatherDisplay:10.37,2013-06-29 18:00:00,
2013-06-29 11:05:00,77.2,66.2,30.08,West,278,0.0,1.1,69,0.00,SCT,,0.00,568.0,WeatherDisplay:10.37,2013-06-29 18:05:00,
2013-06-29 11:10:00,77.5,67.4,30.08,WNW,287,2.2,3.5,71,0.00,SCT,,0.00,759.0,WeatherDisplay:10.37,2013-06-29 18:10:00,
2013-06-29 11:15:00,77.5,66.5,30.08,West,264,0.3,3.0,69,0.00,SCT,,0.00,464.0,WeatherDisplay:10.37,2013-06-29 18:15:00,
2013-06-29 11:20:00,76.8,65.4,30.08,WNW,297,0.8,3.5,68,0.00,SCT,,0.00,367.0,WeatherDisplay:10.37,2013-06-29 18:20:00,
2013-06-29 11:25:00,76.6,65.2,30.08,WSW,243,1.1,3.5,68,0.00,SCT,,0.00,448.0,WeatherDisplay:10.37,2013-06-29 18:25:00,
2013-06-29 11:30:00,77.4,68.5,30.08,WSW,250,2.2,6.9,74,0.00,SCT,,0.00,846.0,WeatherDisplay:10.37,2013-06-29 18:30:00,
2013-06-29 11:35:00,78.0,67.0,30.08,WSW,237,2.7,5.8,69,0.00,BKN,,0.00,708.0,WeatherDisplay:10.37,2013-06-29 18:35:00,
2013-06-29 11:40:00,77.9,66.9,30.08,West,279,0.5,3.0,69,0.00,BKN,,0.00,424.0,WeatherDisplay:10.37,2013-06-29 18:40:00,
2013-06-29 11:45:00,77.8,67.6,30.08,WNW,283,0.0,0.0,71,0.00,BKN,,0.00,547.0,WeatherDisplay:10.37,2013-06-29 18:45:00,
2013-06-29 11:50:00,78.2,67.2,30.08,WSW,255,6.0,10.0,69,0.00,BKN,,0.00,503.0,WeatherDisplay:10.37,2013-06-29 18:50:00,
2013-06-29 11:55:00,78.1,68.7,30.08,SSW,206,1.7,6.9,73,0.00,BKN,,0.00,847.0,WeatherDisplay:10.37,2013-06-29 18:55:00,
2013-06-29 12:00:00,78.7,68.5,30.08,West,260,0.7,4.6,71,0.00,BKN,,0.00,789.0,WeatherDisplay:10.37,2013-06-29 19:00:00,
2013-06-29 12:05:00,79.2,68.6,30.08,West,280,2.3,4.6,70,0.00,BKN,,0.00,865.0,WeatherDisplay:10.37,2013-06-29 19:05:00,
2013-06-29 12:10:00,79.5,68.0,30.08,South,187,5.0,8.0,68,0.00,BKN,,0.00,585.0,WeatherDisplay:10.37,2013-06-29 19:10:00,
2013-06-29 12:15:00,79.0,69.2,30.08,SW,218,0.9,3.5,72,0.00,BKN,,0.00,478.0,WeatherDisplay:10.37,2013-06-29 19:15:00,
2013-06-29 12:20:00,79.0,68.3,30.08,SSW,211,2.0,7.0,70,0.00,BKN,,0.00,654.0,WeatherDisplay:10.37,2013-06-29 19:20:00,
2013-06-29 12:25:00,79.2,69.8,30.08,SE,126,1.6,5.0,73,0.00,BKN,,0.00,960.0,WeatherDisplay:10.37,2013-06-29 19:25:00,
2013-06-29 12:30:00,80.2,68.6,30.08,SSW,204,3.0,7.0,68,0.00,BKN,,0.00,970.0,WeatherDisplay:10.37,2013-06-29 19:30:00,
2013-06-29 12:35:00,80.4,69.7,30.07,SSW,196,1.3,7.0,70,0.00,BKN,,0.00,898.0,WeatherDisplay:10.37,2013-06-29 19:35:00,
2013-06-29 12:40:00,80.4,69.3,30.07,SW,222,1.0,9.0,69,0.00,BKN,,0.00,712.0,WeatherDisplay:10.37,2013-06-29 19:40:00,
2013-06-29 12:45:00,80.6,69.1,30.07,South,185,2.6,9.2,68,0.00,BKN,,0.00,508.0,WeatherDisplay:10.37,2013-06-29 19:45:00,
2013-06-29 12:50:00,80.4,68.4,30.07,WSW,251,4.3,6.9,67,0.00,BKN,,0.00,561.0,WeatherDisplay:10.37,2013-06-29 19:50:00,
2013-06-29 12:55:00,80.0,68.5,30.07,South,188,0.1,1.1,68,0.00,BKN,,0.00,411.0,WeatherDisplay:10.37,2013-06-29 19:55:00,
2013-06-29 13:00:00,79.5,67.6,30.07,SSW,208,5.0,8.0,67,0.00,BKN,,0.00,369.0,WeatherDisplay:10.37,2013-06-29 20:00:00,
2013-06-29 13:05:00,78.6,68.0,30.07,WSW,238,0.7,2.3,70,0.00,BKN,,0.00,353.0,WeatherDisplay:10.37,2013-06-29 20:05:00,
2013-06-29 13:10:00,78.3,68.9,30.06,West,267,1.0,5.8,73,0.00,BKN,,0.00,381.0,WeatherDisplay:10.37,2013-06-29 20:10:00,
2013-06-29 13:15:00,78.5,69.1,30.07,SSW,193,3.4,5.8,73,0.00,BKN,,0.00,403.0,WeatherDisplay:10.37,2013-06-29 20:15:00,
2013-06-29 13:20:00,78.8,69.0,30.07,WSW,245,0.7,3.5,72,0.00,BKN,,0.00,573.0,WeatherDisplay:10.37,2013-06-29 20:20:00,
2013-06-29 13:25:00,79.4,68.3,30.07,South,170,3.4,5.8,69,0.00,BKN,,0.00,728.0,WeatherDisplay:10.37,2013-06-29 20:25:00,
2013-06-29 13:30:00,79.0,68.4,30.07,ENE,78,0.0,1.1,70,0.00,BKN,,0.00,657.0,WeatherDisplay:10.37,2013-06-29 20:30:00,
2013-06-29 13:35:00,79.6,68.5,30.07,SSW,209,6.6,11.5,69,0.00,BKN,,0.00,427.0,WeatherDisplay:10.37,2013-06-29 20:35:00,
2013-06-29 13:40:00,79.4,68.3,30.07,South,179,5.7,10.4,69,0.00,BKN,,0.00,475.0,WeatherDisplay:10.37,2013-06-29 20:40:00,
2013-06-29 13:45:00,78.9,68.3,30.07,SSW,194,4.9,9.2,70,0.00,BKN,,0.00,475.0,WeatherDisplay:10.37,2013-06-29 20:45:00,
2013-06-29 13:50:00,79.0,68.4,30.07,SSW,201,1.5,3.5,70,0.00,BKN,,0.00,519.0,WeatherDisplay:10.37,2013-06-29 20:50:00,
2013-06-29 13:55:00,79.8,70.0,30.06,SSW,197,3.5,6.9,72,0.00,BKN,,0.00,504.0,WeatherDisplay:10.37,2013-06-29 20:55:00,
2013-06-29 14:00:00,79.2,68.6,30.06,South,177,6.0,10.4,70,0.00,BKN,,0.00,357.0,WeatherDisplay:10.37,2013-06-29 21:00:00,
2013-06-29 14:05:00,79.4,70.4,30.06,South,183,7.8,10.4,74,0.00,BKN,,0.00,1053.0,WeatherDisplay:10.37,2013-06-29 21:05:00,
2013-06-29 14:10:00,80.2,69.5,30.06,West,268,2.7,6.9,70,0.00,BKN,,0.00,833.0,WeatherDisplay:10.37,2013-06-29 21:10:00,
2013-06-29 14:15:00,79.9,70.1,30.06,SW,231,0.2,8.1,72,0.00,BKN,,0.00,896.0,WeatherDisplay:10.37,2013-06-29 21:15:00,
2013-06-29 14:20:00,80.9,71.4,30.05,SSW,203,2.5,5.8,73,0.00,BKN,,0.00,858.0,WeatherDisplay:10.37,2013-06-29 21:20:00,
2013-06-29 14:25:00,81.7,71.0,30.05,West,274,2.0,4.0,70,0.00,BKN,,0.00,851.0,WeatherDisplay:10.37,2013-06-29 21:25:00,
2013-06-29 14:30:00,81.8,70.6,30.05,South,183,2.2,4.6,69,0.00,BKN,,0.00,838.0,WeatherDisplay:10.37,2013-06-29 21:30:00,
2013-06-29 14:35:00,82.2,71.4,30.05,South,181,2.5,5.8,70,0.00,BKN,,0.00,837.0,WeatherDisplay:10.37,2013-06-29 21:35:00,
2013-06-29 14:40:00,82.8,71.2,30.05,NW,314,2.5,5.8,68,0.00,BKN,,0.00,826.0,WeatherDisplay:10.37,2013-06-29 21:40:00,
2013-06-29 14:45:00,83.1,70.1,30.04,South,182,1.9,6.0,65,0.00,BKN,,0.00,810.0,WeatherDisplay:10.37,2013-06-29 21:45:00,
2013-06-29 14:50:00,83.0,70.0,30.04,NW,312,1.6,3.5,65,0.00,BKN,,0.00,809.0,WeatherDisplay:10.37,2013-06-29 21:50:00,
2013-06-29 14:55:00,83.4,71.3,30.04,West,274,0.3,1.1,67,0.00,BKN,,0.00,805.0,WeatherDisplay:10.37,2013-06-29 21:55:00,
2013-06-29 15:00:00,83.4,69.5,30.04,West,278,0.9,3.5,63,0.00,BKN,,0.00,803.0,WeatherDisplay:10.37,2013-06-29 22:00:00,
2013-06-29 15:05:00,83.2,67.9,30.04,SSE,156,4.1,6.0,60,0.00,BKN,,0.00,798.0,WeatherDisplay:10.37,2013-06-29 22:05:00,
2013-06-29 15:10:00,83.2,69.8,30.04,SSE,161,1.0,4.6,64,0.00,BKN,,0.00,724.0,WeatherDisplay:10.37,2013-06-29 22:10:00,
2013-06-29 15:15:00,83.7,68.3,30.04,SW,227,3.9,9.2,60,0.00,BKN,,0.00,779.0,WeatherDisplay:10.37,2013-06-29 22:15:00,
2013-06-29 15:20:00,83.3,68.4,30.04,SSE,168,6.8,9.2,61,0.00,BKN,,0.00,772.0,WeatherDisplay:10.37,2013-06-29 22:20:00,
2013-06-29 15:25:00,82.6,68.7,30.03,South,181,0.3,3.5,63,0.00,BKN,,0.00,761.0,WeatherDisplay:10.37,2013-06-29 22:25:00,
2013-06-29 15:30:00,82.9,69.0,30.03,SSW,193,1.9,6.9,63,0.00,BKN,,0.00,751.0,WeatherDisplay:10.37,2013-06-29 22:30:00,
2013-06-29 15:35:00,83.2,68.8,30.03,South,173,3.4,5.8,62,0.00,BKN,,0.00,738.0,WeatherDisplay:10.37,2013-06-29 22:35:00,
2013-06-29 15:40:00,82.6,69.2,30.03,SW,226,3.3,6.9,64,0.00,BKN,,0.00,731.0,WeatherDisplay:10.37,2013-06-29 22:40:00,
2013-06-29 15:45:00,82.5,69.5,30.03,SSW,197,1.0,3.5,65,0.00,BKN,,0.00,721.0,WeatherDisplay:10.37,2013-06-29 22:45:00,
2013-06-29 15:50:00,82.8,69.4,30.03,West,268,2.8,8.1,64,0.00,BKN,,0.00,714.0,WeatherDisplay:10.37,2013-06-29 22:50:00,
2013-06-29 15:55:00,82.6,68.7,30.03,South,188,5.4,11.5,63,0.00,BKN,,0.00,694.0,WeatherDisplay:10.37,2013-06-29 22:55:00,
2013-06-29 16:00:00,82.6,71.0,30.03,SSW,200,0.5,3.5,68,0.00,BKN,,0.00,687.0,WeatherDisplay:10.37,2013-06-29 23:00:00,
2013-06-29 16:05:00,83.1,68.7,30.02,SSW,202,2.0,3.5,62,0.00,BKN,,0.00,559.0,WeatherDisplay:10.37,2013-06-29 23:05:00,
2013-06-29 16:10:00,82.9,69.0,30.02,SW,228,3.7,4.6,63,0.00,BKN,,0.00,666.0,WeatherDisplay:10.37,2013-06-29 23:10:00,
2013-06-29 16:15:00,82.5,69.1,30.02,WSW,237,2.2,5.8,64,0.00,BKN,,0.00,663.0,WeatherDisplay:10.37,2013-06-29 23:15:00,
2013-06-29 16:20:00,82.8,68.4,30.02,NW,316,0.3,4.6,62,0.00,BKN,,0.00,650.0,WeatherDisplay:10.37,2013-06-29 23:20:00,
2013-06-29 16:26:00,83.0,68.2,30.02,NNW,345,3.5,6.0,61,0.00,BKN,,0.00,636.0,WeatherDisplay:10.37,2013-06-29 23:26:00,
2013-06-29 16:31:00,83.1,67.3,30.02,West,264,1.7,1.7,59,0.00,BKN,,0.00,626.0,WeatherDisplay:10.37,2013-06-29 23:31:00,
2013-06-29 16:36:00,82.7,67.4,30.02,South,185,3.2,5.0,60,0.00,BKN,,0.00,584.0,WeatherDisplay:10.37,2013-06-29 23:36:00,
2013-06-29 16:41:00,82.6,68.3,30.02,SW,230,0.2,3.5,62,0.00,BKN,,0.00,253.0,WeatherDisplay:10.37,2013-06-29 23:41:00,
2013-06-29 16:46:00,82.8,67.5,30.02,SSW,213,1.3,3.5,60,0.00,BKN,,0.00,113.0,WeatherDisplay:10.37,2013-06-29 23:46:00,
2013-06-29 16:51:00,82.9,69.0,30.02,SW,215,1.6,3.5,63,0.00,BKN,,0.00,371.0,WeatherDisplay:10.37,2013-06-29 23:51:00,
2013-06-29 16:56:00,82.5,67.2,30.02,WSW,254,3.2,8.1,60,0.00,BKN,,0.00,62.0,WeatherDisplay:10.37,2013-06-29 23:56:00,
2013-06-29 17:01:00,82.1,67.3,30.02,WSW,246,1.9,9.2,61,0.00,BKN,,0.00,139.0,WeatherDisplay:10.37,2013-06-30 00:01:00,
2013-06-29 17:06:00,82.0,66.7,30.02,NW,317,0.9,3.5,60,0.00,BKN,,0.00,288.0,WeatherDisplay:10.37,2013-06-30 00:06:00,
2013-06-29 17:11:00,82.0,67.7,30.01,SW,225,1.6,5.8,62,0.00,BKN,,0.00,174.0,WeatherDisplay:10.37,2013-06-30 00:11:00,
2013-06-29 17:16:00,82.0,68.2,30.01,SW,218,2.3,3.5,63,0.00,BKN,,0.00,200.0,WeatherDisplay:10.37,2013-06-30 00:16:00,
2013-06-29 17:21:00,82.1,66.8,30.01,WNW,287,1.1,3.5,60,0.00,BKN,,0.00,132.0,WeatherDisplay:10.37,2013-06-30 00:21:00,
2013-06-29 17:26:00,82.2,66.9,30.01,NNW,341,1.9,4.6,60,0.00,BKN,,0.00,105.0,WeatherDisplay:10.37,2013-06-30 00:26:00,
2013-06-29 17:31:00,82.1,67.3,30.01,NW,316,1.2,3.5,61,0.00,BKN,,0.00,60.0,WeatherDisplay:10.37,2013-06-30 00:31:00,
2013-06-29 17:36:00,81.9,67.1,30.00,SSW,195,0.6,3.5,61,0.00,BKN,,0.00,74.0,WeatherDisplay:10.37,2013-06-30 00:36:00,
2013-06-29 17:41:00,81.5,65.8,30.00,South,191,0.5,3.5,59,0.00,BKN,,0.00,58.0,WeatherDisplay:10.37,2013-06-30 00:41:00,
2013-06-29 17:46:00,81.6,66.8,30.00,WSW,258,3.6,5.8,61,0.00,BKN,,0.00,58.0,WeatherDisplay:10.37,2013-06-30 00:46:00,
2013-06-29 17:51:00,81.6,66.8,30.01,South,186,2.2,4.0,61,0.00,BKN,,0.00,56.0,WeatherDisplay:10.37,2013-06-30 00:51:00,
2013-06-29 17:56:00,81.1,67.3,30.00,WNW,282,0.4,2.0,63,0.00,BKN,,0.00,63.0,WeatherDisplay:10.37,2013-06-30 00:56:00,
2013-06-29 18:01:00,81.3,67.5,30.00,WSW,243,0.4,1.1,63,0.00,BKN,,0.00,72.0,WeatherDisplay:10.37,2013-06-30 01:01:00,
2013-06-29 18:06:00,81.1,66.4,30.00,WNW,285,2.1,3.5,61,0.00,BKN,,0.00,67.0,WeatherDisplay:10.37,2013-06-30 01:06:00,
2013-06-29 18:11:00,80.8,67.5,30.00,SW,222,1.0,3.5,64,0.00,BKN,,0.00,63.0,WeatherDisplay:10.37,2013-06-30 01:11:00,
2013-06-29 18:16:00,80.9,66.7,30.00,West,262,3.3,6.9,62,0.00,BKN,,0.00,58.0,WeatherDisplay:10.37,2013-06-30 01:16:00,
2013-06-29 18:21:00,81.0,66.3,30.00,West,268,2.1,7.0,61,0.00,BKN,,0.00,62.0,WeatherDisplay:10.37,2013-06-30 01:21:00,
2013-06-29 18:26:00,80.7,66.9,30.00,SSW,205,1.8,4.6,63,0.00,BKN,,0.00,65.0,WeatherDisplay:10.37,2013-06-30 01:26:00,
2013-06-29 18:31:00,80.5,65.8,30.00,WNW,294,1.8,3.5,61,0.00,BKN,,0.00,67.0,WeatherDisplay:10.37,2013-06-30 01:31:00,
2013-06-29 18:36:00,80.4,65.7,30.00,SW,235,2.7,4.6,61,0.00,BKN,,0.00,62.0,WeatherDisplay:10.37,2013-06-30 01:36:00,
2013-06-29 18:41:00,80.4,66.2,30.00,SSW,204,0.1,2.3,62,0.00,BKN,,0.00,62.0,WeatherDisplay:10.37,2013-06-30 01:41:00,
2013-06-29 18:46:00,80.3,64.7,30.00,SSE,163,0.2,2.3,59,0.00,BKN,,0.00,60.0,WeatherDisplay:10.37,2013-06-30 01:46:00,
2013-06-29 18:51:00,80.1,65.9,30.00,SE,141,0.1,2.3,62,0.00,BKN,,0.00,62.0,WeatherDisplay:10.37,2013-06-30 01:51:00,
2013-06-29 18:56:00,80.1,65.9,30.00,South,185,0.5,3.5,62,0.00,BKN,,0.00,60.0,WeatherDisplay:10.37,2013-06-30 01:56:00,
2013-06-29 19:01:00,80.1,66.4,29.99,SW,225,0.3,4.6,63,0.00,BKN,,0.00,53.0,WeatherDisplay:10.37,2013-06-30 02:01:00,
2013-06-29 19:06:00,79.6,65.9,30.00,South,186,1.2,3.5,63,0.00,BKN,,0.00,54.0,WeatherDisplay:10.37,2013-06-30 02:06:00,
2013-06-29 19:11:00,79.5,65.8,29.99,South,183,2.6,3.5,63,0.00,BKN,,0.00,67.0,WeatherDisplay:10.37,2013-06-30 02:11:00,
2013-06-29 19:16:00,79.5,65.8,29.99,SSW,197,3.6,5.8,63,0.00,BKN,,0.00,60.0,WeatherDisplay:10.37,2013-06-30 02:16:00,
2013-06-29 19:21:00,79.1,65.9,29.99,South,191,1.4,3.5,64,0.00,BKN,,0.00,63.0,WeatherDisplay:10.37,2013-06-30 02:21:00,
2013-06-29 19:26:00,78.8,65.6,29.99,SSW,197,0.9,3.5,64,0.00,BKN,,0.00,56.0,WeatherDisplay:10.37,2013-06-30 02:26:00,
2013-06-29 19:31:00,78.6,65.4,29.99,South,191,2.1,4.6,64,0.00,BKN,,0.00,53.0,WeatherDisplay:10.37,2013-06-30 02:31:00,
2013-06-29 19:36:00,78.5,65.3,29.99,South,190,0.7,3.5,64,0.00,BKN,,0.00,54.0,WeatherDisplay:10.37,2013-06-30 02:36:00,
2013-06-29 19:41:00,78.4,65.2,29.99,South,170,1.0,3.5,64,0.00,BKN,,0.00,54.0,WeatherDisplay:10.37,2013-06-30 02:41:00,
2013-06-29 19:46:00,78.2,65.5,29.99,South,175,1.7,3.5,65,0.00,BKN,,0.00,47.0,WeatherDisplay:10.37,2013-06-30 02:46:00,
2013-06-29 19:51:00,77.9,65.6,29.99,South,179,2.6,10.0,66,0.00,BKN,,0.00,40.0,WeatherDisplay:10.37,2013-06-30 02:51:00,
2013-06-29 19:56:00,77.6,65.8,29.99,South,185,0.3,2.3,67,0.00,BKN,,0.00,33.0,WeatherDisplay:10.37,2013-06-30 02:56:00,
2013-06-29 20:01:00,77.3,66.3,30.00,South,185,0.1,0.0,69,0.00,BKN,,0.00,32.0,WeatherDisplay:10.37,2013-06-30 03:01:00,
2013-06-29 20:06:00,77.0,66.5,30.00,SW,224,0.0,0.0,70,0.00,BKN,,0.00,33.0,WeatherDisplay:10.37,2013-06-30 03:06:00,
2013-06-29 20:11:00,76.8,66.7,30.00,South,172,0.2,1.0,71,0.00,BKN,,0.00,32.0,WeatherDisplay:10.37,2013-06-30 03:11:00,
2013-06-29 20:16:00,76.5,66.4,29.99,SSW,212,0.0,0.0,71,0.00,BKN,,0.00,30.0,WeatherDisplay:10.37,2013-06-30 03:16:00,
2013-06-29 20:21:00,76.3,66.2,29.99,South,186,0.4,2.0,71,0.00,BKN,,0.00,26.0,WeatherDisplay:10.37,2013-06-30 03:21:00,
2013-06-29 20:26:00,76.1,66.0,29.99,South,184,0.0,1.1,71,0.00,BKN,,0.00,25.0,WeatherDisplay:10.37,2013-06-30 03:26:00,
2013-06-29 20:31:00,75.7,66.0,30.00,South,183,0.0,0.0,72,0.00,BKN,,0.00,23.0,WeatherDisplay:10.37,2013-06-30 03:31:00,
2013-06-29 20:36:00,75.5,66.2,29.99,South,182,0.1,3.0,73,0.00,BKN,,0.00,21.0,WeatherDisplay:10.37,2013-06-30 03:36:00,
2013-06-29 20:41:00,75.0,66.1,29.99,SSW,193,0.1,0.0,74,0.00,BKN,,0.00,19.0,WeatherDisplay:10.37,2013-06-30 03:41:00,
2013-06-29 20:46:00,74.7,66.2,29.99,SSW,194,0.1,1.1,75,0.00,BKN,,0.00,16.0,WeatherDisplay:10.37,2013-06-30 03:46:00,
2013-06-29 20:51:00,74.3,66.2,29.99,SW,226,0.0,3.5,76,0.00,BKN,,0.00,11.0,WeatherDisplay:10.37,2013-06-30 03:51:00,
2013-06-29 20:56:00,74.0,66.0,29.99,SSW,202,0.1,2.3,76,0.00,BKN,,0.00,7.0,WeatherDisplay:10.37,2013-06-30 03:56:00,
2013-06-29 21:01:00,73.7,65.7,29.99,SSW,202,0.0,1.1,76,0.00,BKN,,0.00,5.0,WeatherDisplay:10.37,2013-06-30 04:01:00,
2013-06-29 21:02:00,73.6,65.6,30.00,SSW,202,0.0,1.1,76,0.00,BKN,,0.00,5.0,WeatherDisplay:10.37,2013-06-30 04:02:00,
2013-06-29 21:07:00,73.2,65.2,30.00,SSW,202,0.8,0.0,76,0.00,BKN,,0.00,0.0,WeatherDisplay:10.37,2013-06-30 04:07:00,
2013-06-29 21:12:00,73.0,65.4,30.00,SSW,192,0.0,0.0,77,0.00,BKN,,0.00,0.0,WeatherDisplay:10.37,2013-06-30 04:12:00,
2013-06-29 21:17:00,72.5,64.9,30.00,SSW,195,0.0,0.0,77,0.00,FEW,,0.00,0.0,WeatherDisplay:10.37,2013-06-30 04:17:00,
2013-06-29 21:22:00,72.0,64.4,30.00,SSW,195,0.1,1.1,77,0.00,FEW,,0.00,0.0,WeatherDisplay:10.37,2013-06-30 04:22:00,
2013-06-29 21:27:00,71.7,64.5,30.00,SSW,194,0.0,1.1,78,0.00,FEW,,0.00,0.0,WeatherDisplay:10.37,2013-06-30 04:27:00,
2013-06-29 21:32:00,71.3,64.8,30.00,SSW,193,0.0,0.0,80,0.00,FEW,,0.00,0.0,WeatherDisplay:10.37,2013-06-30 04:32:00,
2013-06-29 21:37:00,70.6,64.5,30.01,SSW,194,0.0,0.0,81,0.00,FEW,,0.00,0.0,WeatherDisplay:10.37,2013-06-30 04:37:00,
2013-06-29 21:42:00,70.2,64.8,30.01,SSW,192,0.0,0.0,83,0.00,FEW,,0.00,0.0,WeatherDisplay:10.37,2013-06-30 04:42:00,
2013-06-29 21:47:00,70.0,64.6,30.01,SSW,192,0.0,0.0,83,0.00,FEW,,0.00,0.0,WeatherDisplay:10.37,2013-06-30 04:47:00,
2013-06-29 21:52:00,70.0,64.6,30.01,SSW,192,0.0,0.0,83,0.00,FEW,,0.00,0.0,WeatherDisplay:10.37,2013-06-30 04:52:00,
2013-06-29 21:57:00,70.1,64.7,30.01,SSW,195,0.0,1.1,83,0.00,FEW,,0.00,0.0,WeatherDisplay:10.37,2013-06-30 04:57:00,
2013-06-29 22:02:00,70.3,64.5,30.01,SSW,192,0.1,1.1,82,0.00,FEW,,0.00,0.0,WeatherDisplay:10.37,2013-06-30 05:02:00,
2013-06-29 22:07:00,70.4,64.6,30.01,SSW,193,0.0,0.0,82,0.00,FEW,,0.00,0.0,WeatherDisplay:10.37,2013-06-30 05:07:00,
2013-06-29 22:12:00,70.4,64.3,30.02,SSW,195,0.0,0.0,81,0.00,FEW,,0.00,0.0,WeatherDisplay:10.37,2013-06-30 05:12:00,
2013-06-29 22:17:00,69.9,64.5,30.02,SSW,194,0.0,0.0,83,0.00,FEW,,0.00,0.0,WeatherDisplay:10.37,2013-06-30 05:17:00,
2013-06-29 22:22:00,69.3,64.3,30.01,SSW,192,0.0,1.1,84,0.00,FEW,,0.00,0.0,WeatherDisplay:10.37,2013-06-30 05:22:00,
2013-06-29 22:27:00,69.0,64.0,30.02,NW,317,0.1,1.1,84,0.00,FEW,,0.00,0.0,WeatherDisplay:10.37,2013-06-30 05:27:00,
2013-06-29 22:32:00,68.8,63.8,30.02,NW,316,0.0,0.0,84,0.00,FEW,,0.00,0.0,WeatherDisplay:10.37,2013-06-30 05:32:00,
2013-06-29 22:37:00,68.6,63.2,30.02,NW,314,0.0,0.0,83,0.00,FEW,,0.00,0.0,WeatherDisplay:10.37,2013-06-30 05:37:00,
2013-06-29 22:42:00,68.1,63.4,30.02,NW,316,0.0,0.0,85,0.00,FEW,,0.00,0.0,WeatherDisplay:10.37,2013-06-30 05:42:00,
2013-06-29 22:47:00,67.8,63.1,30.02,NW,318,0.0,0.0,85,0.00,FEW,,0.00,0.0,WeatherDisplay:10.37,2013-06-30 05:47:00,
2013-06-29 22:52:00,67.5,63.2,30.02,NW,316,0.0,0.0,86,0.00,FEW,,0.00,0.0,WeatherDisplay:10.37,2013-06-30 05:52:00,
2013-06-29 22:57:00,67.1,62.8,30.02,NW,314,0.0,0.0,86,0.00,FEW,,0.00,0.0,WeatherDisplay:10.37,2013-06-30 05:57:00,
2013-06-29 23:02:00,66.9,62.9,30.02,NW,316,0.0,0.0,87,0.00,FEW,,0.00,0.0,WeatherDisplay:10.37,2013-06-30 06:02:00,
2013-06-29 23:07:00,66.6,62.6,30.02,NW,316,0.0,0.0,87,0.00,FEW,,0.00,0.0,WeatherDisplay:10.37,2013-06-30 06:07:00,
2013-06-29 23:12:00,66.4,62.7,30.02,NW,317,0.0,0.0,88,0.00,FEW,,0.00,0.0,WeatherDisplay:10.37,2013-06-30 06:12:00,
2013-06-29 23:17:00,66.2,62.5,30.01,NW,317,0.0,0.0,88,0.00,FEW,,0.00,0.0,WeatherDisplay:10.37,2013-06-30 06:17:00,
2013-06-29 23:22:00,66.1,62.8,30.01,NW,317,0.0,0.0,89,0.00,FEW,,0.00,0.0,WeatherDisplay:10.37,2013-06-30 06:22:00,
2013-06-29 23:27:00,66.0,62.7,30.01,NW,316,0.0,0.0,89,0.00,FEW,,0.00,0.0,WeatherDisplay:10.37,2013-06-30 06:27:00,
2013-06-29 23:32:00,65.8,62.5,30.01,NW,314,0.0,0.0,89,0.00,FEW,,0.00,0.0,WeatherDisplay:10.37,2013-06-30 06:32:00,
2013-06-29 23:37:00,65.7,62.7,30.01,NW,318,0.0,0.0,90,0.00,FEW,,0.00,0.0,WeatherDisplay:10.37,2013-06-30 06:37:00,
2013-06-29 23:42:00,65.7,62.7,30.01,NW,316,0.0,0.0,90,0.00,FEW,,0.00,0.0,WeatherDisplay:10.37,2013-06-30 06:42:00,
2013-06-29 23:47:00,65.6,62.6,30.01,NW,314,0.0,0.0,90,0.00,FEW,,0.00,0.0,WeatherDisplay:10.37,2013-06-30 06:47:00,
2013-06-29 23:52:00,65.5,62.5,30.02,NW,316,0.0,0.0,90,0.00,FEW,,0.00,0.0,WeatherDisplay:10.37,2013-06-30 06:52:00,
2013-06-29 23:58:00,65.3,62.3,30.02,NW,315,0.0,0.0,90,0.00,FEW,,0.00,0.0,WeatherDisplay:10.37,2013-06-30 06:58:00,